Concordia, KS

2:32 AM CDT on September 16, 2019 (GMT -0500)
Blosser Municipal

Weather History for KCNK - August, 2019

Change the Weather History Date:

Friday, August 23, 2019

  Actual Average Record
Temperature  
Mean Temperature 76 °F 76 °F  
Max Temperature 81 °F 88 °F 105 °F (1936)
Min Temperature 70 °F 65 °F 41 °F (1891)
Degree Days  
Heating Degree Days 0 0  
Month to date heating degree days 0 0  
Since 1 June heating degree days 0 13  
Since 1 July heating degree days 0 0  
Cooling Degree Days 11 11  
Month to date cooling degree days 310 294  
Year to date cooling degree days 1215 1084  
Since 1 June cooling degree days 1115 995  
Growing Degree Days 26 (Base 50)    
Moisture  
Dew Point 70 °F    
Average Humidity 87    
Maximum Humidity 100    
Minimum Humidity 74    
Precipitation  
Precipitation 0.69 in 0.10 in 2.46 in (1941)
Month to date precipitation 5.76 2.38  
Year to date precipitation 27.99 20.34  
Snow  
Snow 0.00 in 0.00 in T in (1941)
Month to date snowfall 0.0 0.0  
Year to date snowfall 32.3 13.7  
Since 1 July snowfall 0.0 0.0  
Snow Depth 0.00 in    
Sea Level Pressure  
Sea Level Pressure 30.00 in    
Wind  
Wind Speed 8 mph (ESE)    
Max Wind Speed 21 mph    
Max Gust Speed 28 mph    
Visibility 7 miles    
Events Rain , Thunderstorm    
T = Trace of Precipitation, MM = Missing Value Source: NWS Daily Summary

Daily Weather History Graph

Daily Weather History Graph

Search for Another Location

Airport or City:

Astronomy

Aug. 23, 2019 Rise Set
Actual Time 6:50 AM CDT 8:15 PM CDT
Civil Twilight 6:22 AM CDT 8:43 PM CDT
Nautical Twilight 5:48 AM CDT 9:17 PM CDT
Astronomical Twilight 5:12 AM CDT 9:52 PM CDT
Moon 12:09 AM CDT (8/23) 2:26 PM CDT (8/23)
Length of Visible Light 14h 21m
Length of Day
13h 25m
Waning Gibbous, 49% of the Moon is Illuminated
Aug 23
Waning Gibbous
Aug 30
New
Sep 5
First Quarter
Sep 13
Full
Sep 21
Last Quarter

Hourly Weather History & Observations

Time (CDT) Temp. Heat Index Dew Point Humidity Pressure Visibility Wind Dir Wind Speed Gust Speed Precip Events Conditions
12:55 AM 72.0 °F - 70.0 °F 93% 29.96 in 10.0 mi ESE 5.8 mph - N/A   Clear
1:38 AM 72.0 °F - 70.0 °F 93% 30.01 in 7.0 mi Calm Calm - N/A   Scattered Clouds
1:55 AM 71.1 °F - 69.1 °F 93% 29.96 in 5.0 mi SE 6.9 mph - N/A   Mostly Cloudy
2:12 AM 71.1 °F - 70.0 °F 96% 29.99 in 6.0 mi SE 5.8 mph - N/A   Partly Cloudy
2:44 AM 71.1 °F - 70.0 °F 96% 29.99 in 6.0 mi SE 6.9 mph - N/A   Mostly Cloudy
2:55 AM 71.1 °F - 70.0 °F 96% 29.95 in 3.0 mi SE 8.1 mph - N/A   Overcast
3:02 AM 71.1 °F - 70.0 °F 96% 29.98 in 2.5 mi ESE 9.2 mph - N/A   Overcast
3:13 AM 71.1 °F - 70.0 °F 96% 29.98 in 1.5 mi SE 8.1 mph - N/A   Overcast
3:22 AM 71.1 °F - 70.0 °F 96% 29.98 in 2.0 mi SE 8.1 mph - N/A   Overcast
3:31 AM 71.1 °F - 70.0 °F 96% 29.99 in 5.0 mi SE 5.8 mph - N/A   Overcast
3:47 AM 71.1 °F - 70.0 °F 96% 30.00 in 6.0 mi SE 4.6 mph - N/A   Overcast
4:32 AM 71.1 °F - 70.0 °F 96% 30.00 in 1.8 mi ESE 8.1 mph - N/A   Overcast
4:36 AM 71.1 °F - 70.0 °F 96% 30.00 in 1.2 mi ESE 6.9 mph - N/A   Overcast
4:55 AM 71.1 °F - 70.0 °F 96% 29.97 in 1.0 mi East 4.6 mph - N/A   Mist
5:00 AM 72.0 °F - 70.0 °F 93% 30.01 in 1.8 mi East 5.8 mph - N/A   Overcast
5:09 AM 72.0 °F - 70.0 °F 93% 30.00 in 2.5 mi East 5.8 mph - N/A   Overcast
5:16 AM 72.0 °F - 70.0 °F 93% 30.01 in 3.0 mi East 4.6 mph - N/A   Overcast
5:55 AM 72.0 °F - 71.1 °F 97% 29.97 in 6.0 mi East 8.1 mph - N/A   Overcast
6:20 AM 72.0 °F - 70.0 °F 93% 30.02 in 8.0 mi East 6.9 mph - N/A   Overcast
6:44 AM 72.0 °F - 70.0 °F 93% 30.02 in 7.0 mi East 5.8 mph - N/A   Overcast
6:55 AM 72.0 °F - 70.0 °F 93% 29.98 in 6.0 mi East 6.9 mph - N/A   Overcast
7:55 AM 72.0 °F - 70.0 °F 93% 30.00 in 4.0 mi ESE 8.1 mph - N/A   Overcast
8:55 AM 72.0 °F - 70.0 °F 93% 30.02 in 3.0 mi SE 10.4 mph - N/A   Overcast
9:55 AM 72.0 °F - 70.0 °F 93% 30.03 in 8.0 mi SSE 11.5 mph - N/A   Overcast
10:05 AM 72.0 °F - 70.0 °F 93% 30.06 in 8.0 mi SE 11.5 mph - N/A   Overcast
10:55 AM 73.9 °F - 70.0 °F 87% 30.02 in 10.0 mi ESE 9.2 mph - N/A   Overcast
11:55 AM 75.0 °F - 71.1 °F 87% 29.99 in 10.0 mi ESE 15.0 mph 26.5 mph N/A   Overcast
12:51 PM 78.8 °F - 71.6 °F 78% 30.01 in 10.0 mi East 16.1 mph 26.5 mph N/A   Scattered Clouds
12:55 PM 78.1 °F - 70.0 °F 76% 29.98 in 10.0 mi ESE 13.8 mph 25.3 mph N/A   Scattered Clouds
1:14 PM 80.1 °F 83.6 °F 71.1 °F 74% 30.03 in 10.0 mi ESE 13.8 mph 24.2 mph N/A   Mostly Cloudy
1:55 PM 81.0 °F 85.2 °F 72.0 °F 74% 29.99 in 10.0 mi ESE 9.2 mph 17.3 mph N/A   Mostly Cloudy
2:10 PM 81.0 °F 84.9 °F 71.1 °F 72% 30.04 in 10.0 mi East 8.1 mph - N/A   Mostly Cloudy
2:27 PM 81.0 °F 84.4 °F 70.0 °F 69% 30.04 in 10.0 mi East 6.9 mph - N/A   Mostly Cloudy
2:35 PM 80.1 °F 83.2 °F 70.0 °F 71% 30.04 in 10.0 mi East 11.5 mph - N/A   Overcast
2:55 PM 80.1 °F 83.6 °F 71.1 °F 74% 29.99 in 10.0 mi East 9.2 mph - N/A   Mostly Cloudy
3:02 PM 80.1 °F 83.2 °F 70.0 °F 71% 30.03 in 10.0 mi East 12.7 mph 17.3 mph N/A   Mostly Cloudy
3:08 PM 80.1 °F 83.2 °F 70.0 °F 71% 30.02 in 10.0 mi East 9.2 mph - N/A Thunderstorm Mostly Cloudy
3:25 PM 79.0 °F - 70.0 °F 74% 30.03 in 10.0 mi East 10.4 mph - N/A Thunderstorm Thunderstorm
3:42 PM 75.9 °F - 69.1 °F 79% 30.02 in 2.5 mi South 8.1 mph - 0.00 in Rain , Thunderstorm Light Thunderstorms and Rain
3:51 PM 75.2 °F - 71.6 °F 89% 30.03 in 3.0 mi South 12.7 mph - 0.00 in Rain , Thunderstorm Thunderstorms and Rain
4:10 PM 75.0 °F - 71.1 °F 87% 30.03 in 0.8 mi Variable 3.5 mph 26.5 mph 0.09 in Rain , Thunderstorm Heavy Thunderstorms and Rain
4:22 PM 73.9 °F - 71.1 °F 91% 30.03 in 1.5 mi South 16.1 mph 24.2 mph 0.39 in Rain , Thunderstorm Heavy Thunderstorms and Rain
4:30 PM 72.0 °F - 68.0 °F 87% 30.02 in 1.8 mi South 12.7 mph 24.2 mph 0.47 in Rain , Thunderstorm Heavy Thunderstorms and Rain
4:37 PM 72.0 °F - 70.0 °F 93% 30.02 in 1.8 mi SSE 8.1 mph - 0.52 in Rain , Thunderstorm Heavy Rain
4:44 PM 72.0 °F - 69.1 °F 91% 30.02 in 3.0 mi South 4.6 mph - 0.55 in Rain , Thunderstorm Light Rain
4:55 PM 73.0 °F - 70.0 °F 90% 29.99 in 9.0 mi SSE 6.9 mph - 0.55 in Rain , Thunderstorm Light Rain
5:06 PM 73.0 °F - 70.0 °F 90% 30.03 in 1.8 mi SE 11.5 mph - 0.06 in Rain , Thunderstorm Light Rain
5:11 PM 72.0 °F - 70.0 °F 93% 30.03 in 3.0 mi SE 9.2 mph - 0.08 in Rain , Thunderstorm Rain
5:55 PM 72.0 °F - 69.1 °F 91% 29.99 in 10.0 mi SE 15.0 mph 21.9 mph 0.10 in Thunderstorm Scattered Clouds
6:06 PM 72.0 °F - 68.0 °F 87% 30.03 in 10.0 mi SE 15.0 mph 24.2 mph N/A   Partly Cloudy
6:55 PM 71.1 °F - 68.0 °F 90% 29.97 in 10.0 mi ESE 9.2 mph - N/A   Clear
7:55 PM 73.0 °F - 69.1 °F 87% 29.96 in 10.0 mi East 6.9 mph - N/A   Clear
8:55 PM 72.0 °F - 69.1 °F 91% 29.96 in 10.0 mi East 6.9 mph - N/A   Clear
9:47 PM 71.1 °F - 69.1 °F 93% 30.03 in 9.0 mi East 3.5 mph - N/A   Mostly Cloudy
9:55 PM 71.1 °F - 69.1 °F 93% 29.99 in 9.0 mi East 4.6 mph - N/A   Mostly Cloudy
10:55 PM 73.0 °F - 70.0 °F 90% 30.01 in 10.0 mi ENE 6.9 mph - N/A   Overcast
11:27 PM 73.0 °F - 70.0 °F 90% 30.06 in 10.0 mi East 5.8 mph - N/A   Overcast
11:55 PM 72.0 °F - 69.1 °F 91% 30.02 in 10.0 mi East 6.9 mph - N/A   Overcast